User: anonymous   Login
Location: Brno
(49.2000°N, 16.6330°E)
Time: 23:51:37
(UTC+01:00)
Language:

BREEZE M DEB (TANK) - Orbit

View from above orbital plane
View from above orbital plane
View from above satellite
View from above satellite

Ground track
Ground track

The orbit data is extracted from the following two-line orbital elements,

1 28359U 04022B   14301.93487418  .00004920  00000-0  76890-3 0  2865
2 28359 049.5247 282.1201 4703412 134.3218 309.2782 06.12091583225891
Epoch (UTC): 28 October 2014 22:26:13
Eccentricity: 0.4703412
inclination: 49.5247°
perigee height: 308 km
apogee height: 12183 km
right ascension of ascending node: 282.1201°
argument of perigee: 134.3218°
revolutions per day: 6.12091583
mean anomaly at epoch: 309.2782°
orbit number at epoch: 22589

The dashed part of the orbit path shows where the satellite is in the earth's shadow,  

DLR